[[{"header":{"parameterUnit":"m.s-1","parameterCategory":1,"la1":30.2991,"la2":30.254,"lo1":-89.0895,"lo2":-89.0444,"dy":0.0017,"dx":0.0017,"nx":28,"ny":28,"refTime":"2024-05-27T03:00:00:Z","depth":0,"parameterNumber":2,"parameterNumberName":"U-component_of_WINDS"},"data":[0,0,0,0,0,0,0,0,0,0,0,0,0,0,0,0,0,0,0,0,0,0,0,0,0,0,0,0,0,0,0,0,0,0,0,0,0,0,0,0,0,0,0,0,0,0,0,0,0,0,0,0,0,0,0,0,0,0,1.3385,1.3387,0,1.3562,1.3564,1.3566,1.3631,1.363,1.363,1.3629,1.3812,1.3817,1.3822,0,0,0,0,0,0,0,0,0,0,0,0,0,1.3103,1.3108,1.3385,1.3387,1.339,1.3562,1.3565,1.3567,1.3631,1.363,1.363,1.3629,1.381,1.3816,1.3823,0,0,0,0,0,0,0,0,0,0,0,0,0,1.3247,1.3109,1.3385,1.3442,1.3449,1.3562,1.3565,1.3568,1.3631,1.363,1.3629,1.3629,1.3808,1.3816,1.3824,1.3892,0,0,1.3848,1.3852,0,0,0,0,0,0,0,0,1.3239,1.3257,1.3432,1.3439,1.3447,1.3574,1.3532,1.3676,1.3632,1.3562,1.3629,1.3628,1.3733,1.3747,1.3783,1.39,1.3908,1.3849,1.3854,1.3857,1.386,0,0,0,0,0,0,0,1.3229,1.325,1.3455,1.3434,1.3443,1.3459,1.3479,1.356,1.3651,1.3568,1.3573,1.3593,1.3737,1.3775,1.3787,1.3911,1.3849,1.3856,1.3861,1.3864,1.4093,1.4094,0,0,0,0,0,0,1.3209,1.3241,1.345,1.3461,1.3338,1.3465,1.3487,1.3534,1.365,1.3667,1.3594,1.3596,1.3761,1.3778,1.3794,1.3881,1.3857,1.3865,1.387,1.4092,1.4093,1.4094,0,0,0,0,0,0,1.3203,1.3227,1.3443,1.3353,1.3381,1.3471,1.3523,1.3538,1.3575,1.3669,1.3686,1.3616,1.3761,1.3783,1.3867,1.3888,1.3869,1.3876,1.409,1.4092,1.4094,1.4056,0,0,0,0,0,0,1.3194,1.3224,1.3251,1.3353,1.3386,1.3512,1.3524,1.3542,1.3589,1.3593,1.3694,1.371,1.3762,1.3854,1.3875,1.3899,1.3882,1.4089,1.4091,1.4093,1.4056,1.4056,1.4057,0,0,0,0,0,1.3184,1.3234,1.3252,1.3277,1.3421,1.3513,1.3532,1.3591,1.3591,1.3618,1.3679,1.3707,1.3883,1.3862,1.3886,1.3913,1.4088,1.409,1.4093,1.4055,1.4056,1.4057,0,0,0,0,0,0,1.3132,1.3248,1.327,1.3354,1.3423,1.3524,1.3561,1.359,1.3661,1.3662,1.3732,1.3754,1.3833,1.3882,1.3857,1.3985,1.3987,1.3994,1.395,1.3952,1.3952,1.3938,1.3889,0,0,0,0,0,1.3131,1.3196,1.3293,1.3358,1.3392,1.347,1.3512,1.3552,1.3626,1.3656,1.3723,1.3794,1.3866,1.3912,1.3983,1.4063,1.4086,1.4093,1.4094,1.4094,1.4099,1.4145,1.4149,1.4103,1.4103,1.4103,0,0,1.3128,1.3199,1.3236,1.3349,1.3408,1.3474,1.3494,1.3563,1.3613,1.3667,1.375,1.3801,1.3886,1.3968,1.4008,1.4011,1.4117,1.4097,1.4096,1.4102,1.4148,1.4152,1.4156,1.4105,1.4105,1.4104,0,0,1.3157,1.3217,1.3278,1.3336,1.3424,1.3475,1.349,1.3586,1.3622,1.3707,1.3749,1.3809,1.3931,1.3989,1.4035,1.4085,1.4113,1.4106,1.4109,1.4152,1.4156,1.416,1.4177,1.4183,1.4111,1.4111,1.4111,0,1.3142,1.3243,1.3305,1.3372,1.342,1.3472,1.3533,1.3587,1.3693,1.3725,1.3728,1.3881,1.3942,1.4038,1.405,1.4086,1.4104,1.4095,1.415,1.4155,1.4159,1.4176,1.4183,1.411,1.411,1.411,1.411,0,1.3221,1.329,1.3328,1.343,1.3482,1.3546,1.3617,1.3663,1.3698,1.3749,1.3834,1.3909,1.3996,1.4022,1.4056,1.4123,1.4123,1.4137,1.414,1.4161,1.4178,1.4186,1.4108,1.4108,1.4109,1.4109,0,0,1.3222,1.3356,1.3369,1.3416,1.3517,1.3571,1.3637,1.3722,1.376,1.3832,1.3888,1.399,1.4004,1.4055,1.4097,1.4135,1.417,1.4145,1.4148,1.4147,1.4247,1.4236,1.4242,1.4189,1.4191,1.4192,1.424,0,1.3263,1.3383,1.3441,1.3535,1.36,1.365,1.3707,1.3775,1.3825,1.3887,1.3942,1.4013,1.4026,1.4057,1.4097,1.4157,1.4191,1.4154,1.4243,1.4245,1.4219,1.4252,1.424,1.4282,1.4248,1.4249,1.425,0,1.3328,1.3399,1.35,1.3593,1.3622,1.3673,1.3755,1.3813,1.3891,1.3925,1.3982,1.4023,1.4094,1.4092,1.4191,1.4164,1.4204,1.4239,1.4242,1.4252,1.4248,1.4263,1.4297,1.4302,1.4261,1.426,1.4259,0,1.3318,1.3439,1.3515,1.3553,1.3664,1.3698,1.3746,1.3823,1.387,1.3942,1.3973,1.4052,1.4095,1.4155,1.4216,1.4209,1.4308,1.4312,1.4338,1.4336,1.4357,1.4355,1.4397,1.4382,1.4382,1.4382,1.4382,0,1.3358,1.3418,1.3512,1.3559,1.3627,1.3692,1.3758,1.381,1.3878,1.3935,1.3983,1.4036,1.4113,1.4176,1.4223,1.4298,1.4317,1.4346,1.4358,1.4342,1.4338,1.4368,1.4367,1.4384,1.4384,1.4383,1.4383,0,1.3358,1.3424,1.351,1.3607,1.3633,1.3679,1.3763,1.381,1.3862,1.3934,1.3954,1.4036,1.4112,1.4178,1.4279,1.4311,1.4387,1.4402,1.4361,1.4367,1.4389,1.4386,1.4453,1.4465,1.4442,1.4442,1.4442,0,1.3379,1.3426,1.3529,1.357,1.3617,1.3684,1.3732,1.3799,1.3847,1.3939,1.3975,1.4054,1.4121,1.4241,1.4309,1.4386,1.4403,1.4421,1.4415,1.4397,1.4403,1.4399,1.4404,1.442,1.442,1.442,1.442,0,1.3409,1.3439,1.3507,1.3586,1.3642,1.3708,1.3774,1.3806,1.3884,1.3936,1.4014,1.4066,1.4169,1.4247,1.4331,1.4381,1.4413,1.4422,1.4432,1.4415,1.4389,1.4403,1.436,1.442,1.442,1.442,1.442,1.442,1.3421,1.3465,1.3543,1.3617,1.3674,1.3735,1.3784,1.3842,1.3909,1.3997,1.4032,1.4112,1.4188,1.4305,1.4354,1.4418,1.4423,1.4438,1.4442,1.4444,1.4441,1.4379,1.4433,1.4433,1.4434,1.4434,1.4434,0,1.3453,1.3506,1.3573,1.3665,1.3723,1.3749,1.3824,1.387,1.394,1.4009,1.4073,1.4163,1.4239,1.4313,1.4393,1.4429,1.4446,1.4448,1.4446,1.4457,1.4432,1.4415,1.4433,1.4433,1.4433,1.4433,1.4433,1.4433,1.3477,1.3552,1.3592,1.3696,1.3749,1.3827,1.3868,1.3925,1.398,1.4078,1.4141,1.4189,1.426,1.4345,1.4416,1.4436,1.4463,1.446,1.4484,1.4459,1.4458,1.4458,1.4442,1.4465,1.4465,1.4503,1.4504,1.4504]},{"header":{"parameterUnit":"m.s-1","parameterCategory":1,"la1":30.2991,"la2":30.254,"lo1":-89.0895,"lo2":-89.0444,"dy":0.0017,"dx":0.0017,"nx":28,"ny":28,"refTime":"2024-05-27T03:00:00:Z","depth":0,"parameterNumber":3,"parameterNumberName":"V-component_of_WINDS"},"data":[0,0,0,0,0,0,0,0,0,0,0,0,0,0,0,0,0,0,0,0,0,0,0,0,0,0,0,0,0,0,0,0,0,0,0,0,0,0,0,0,0,0,0,0,0,0,0,0,0,0,0,0,0,0,0,0,0,0,3.039,3.039,0,3.0379,3.0378,3.0378,3.0357,3.0357,3.0357,3.0356,3.0344,3.0344,3.0344,0,0,0,0,0,0,0,0,0,0,0,0,0,3.0395,3.0395,3.0391,3.039,3.039,3.0379,3.0378,3.0378,3.0358,3.0357,3.0357,3.0356,3.0344,3.0344,3.0344,0,0,0,0,0,0,0,0,0,0,0,0,0,3.0389,3.0395,3.0391,3.0378,3.0377,3.0379,3.0378,3.0378,3.0358,3.0357,3.0356,3.0356,3.0344,3.0344,3.0344,3.0356,0,0,3.0344,3.0344,0,0,0,0,0,0,0,0,3.039,3.0389,3.038,3.0379,3.0378,3.0369,3.0376,3.0371,3.0358,3.0365,3.0356,3.0356,3.0353,3.0352,3.0351,3.0356,3.0355,3.0344,3.0344,3.0344,3.0344,0,0,0,0,0,0,0,3.039,3.039,3.0386,3.038,3.0379,3.0374,3.0372,3.0375,3.0362,3.0364,3.0363,3.0362,3.0352,3.0351,3.0351,3.0355,3.0344,3.0344,3.0344,3.0344,3.0369,3.037,0,0,0,0,0,0,3.0392,3.039,3.0386,3.0385,3.0383,3.0374,3.0372,3.0372,3.0362,3.036,3.0362,3.0361,3.0351,3.0351,3.035,3.0364,3.0344,3.0344,3.0344,3.0369,3.0369,3.037,0,0,0,0,0,0,3.0393,3.0392,3.0387,3.0387,3.0386,3.0375,3.0375,3.0372,3.0372,3.0361,3.0358,3.0364,3.0351,3.035,3.0355,3.0363,3.0344,3.0344,3.0368,3.0369,3.037,3.0392,0,0,0,0,0,0,3.0393,3.0392,3.0397,3.0388,3.0386,3.0392,3.0375,3.0373,3.0372,3.037,3.0361,3.0359,3.035,3.0355,3.0355,3.0363,3.0344,3.0367,3.0368,3.0369,3.0391,3.0394,3.0396,0,0,0,0,0,3.0393,3.0404,3.0397,3.0397,3.0392,3.0392,3.0391,3.0381,3.0372,3.0377,3.037,3.036,3.0362,3.0356,3.0355,3.0364,3.0366,3.0368,3.0369,3.0389,3.0393,3.0396,0,0,0,0,0,0,3.0414,3.0402,3.0395,3.0403,3.0399,3.0389,3.0394,3.0385,3.0383,3.0382,3.0368,3.0367,3.0373,3.0369,3.0362,3.0375,3.0363,3.0364,3.0378,3.0382,3.0384,3.0386,3.0344,0,0,0,0,0,3.042,3.0421,3.041,3.0418,3.0417,3.0406,3.0406,3.0398,3.0393,3.0391,3.0385,3.038,3.038,3.0381,3.038,3.039,3.0388,3.0395,3.0398,3.0401,3.0402,3.0408,3.0411,3.0375,3.0375,3.0375,0,0,3.0431,3.0425,3.0426,3.0422,3.0418,3.042,3.0404,3.0407,3.0409,3.0392,3.0396,3.0391,3.0385,3.0393,3.0396,3.039,3.0412,3.0402,3.0404,3.0405,3.041,3.0413,3.0416,3.0376,3.0376,3.0375,0,0,3.0453,3.0448,3.0454,3.0451,3.0445,3.0438,3.0439,3.0431,3.0427,3.0431,3.0418,3.042,3.042,3.0417,3.0415,3.0436,3.0427,3.0436,3.0452,3.0457,3.046,3.0462,3.0471,3.0474,3.0438,3.0438,3.0438,0,3.0468,3.0471,3.0459,3.0463,3.0461,3.0446,3.0453,3.0449,3.0444,3.0443,3.0436,3.0436,3.0431,3.0438,3.0443,3.0442,3.0444,3.0437,3.046,3.0463,3.0465,3.0473,3.0476,3.0439,3.0439,3.0439,3.0439,0,3.049,3.0492,3.0497,3.0493,3.0492,3.0497,3.0486,3.0487,3.0479,3.0473,3.0477,3.0471,3.0469,3.047,3.0462,3.0476,3.0472,3.0463,3.045,3.047,3.0477,3.048,3.0441,3.044,3.044,3.044,0,0,3.0525,3.0514,3.0516,3.0514,3.0506,3.0508,3.0512,3.051,3.0511,3.0508,3.0511,3.0512,3.0503,3.0502,3.0493,3.0498,3.0516,3.0488,3.0488,3.0494,3.0532,3.0539,3.0543,3.051,3.051,3.0511,3.0532,0,3.0546,3.0553,3.0543,3.0552,3.0554,3.054,3.0544,3.054,3.0534,3.0534,3.0528,3.0529,3.0517,3.0516,3.052,3.0513,3.0524,3.0511,3.0513,3.0514,3.0516,3.0546,3.0554,3.0576,3.0535,3.0535,3.0536,0,3.0572,3.057,3.058,3.0572,3.0572,3.0576,3.0574,3.0574,3.057,3.0565,3.0563,3.0553,3.0557,3.0545,3.055,3.0542,3.0542,3.0539,3.054,3.054,3.0527,3.0548,3.0582,3.0585,3.054,3.054,3.0539,0,3.0598,3.0597,3.0603,3.0602,3.0592,3.0596,3.0592,3.0586,3.0586,3.0584,3.0584,3.0582,3.0581,3.058,3.0571,3.0562,3.0578,3.0564,3.0574,3.0575,3.0579,3.0579,3.0614,3.0578,3.0578,3.0578,3.0578,0,3.0623,3.063,3.0615,3.0619,3.0626,3.0614,3.0621,3.0616,3.0611,3.0614,3.0601,3.0604,3.059,3.0592,3.0584,3.059,3.059,3.0586,3.0584,3.0588,3.0589,3.0589,3.0587,3.0579,3.0578,3.0578,3.0578,0,3.0653,3.0643,3.0649,3.064,3.0638,3.0644,3.0636,3.0639,3.0632,3.0636,3.0636,3.0625,3.0626,3.0616,3.0615,3.061,3.062,3.0615,3.0622,3.0621,3.0632,3.0632,3.0669,3.0673,3.0634,3.0634,3.0634,0,3.067,3.0675,3.0667,3.0668,3.0665,3.0666,3.0666,3.0654,3.0654,3.0649,3.0653,3.0653,3.0652,3.0655,3.0647,3.0646,3.0642,3.0655,3.0642,3.0645,3.0643,3.0643,3.0644,3.0658,3.0658,3.0659,3.0659,0,3.0702,3.0697,3.0697,3.0696,3.0696,3.0694,3.0691,3.0693,3.068,3.0681,3.0682,3.0681,3.068,3.0681,3.0678,3.0675,3.0665,3.0663,3.0666,3.067,3.0674,3.0673,3.0631,3.0662,3.0662,3.0662,3.0662,3.0662,3.0727,3.0731,3.0726,3.0726,3.0723,3.0721,3.0724,3.0717,3.0718,3.0716,3.0709,3.0711,3.0706,3.0703,3.07,3.0702,3.0695,3.0699,3.07,3.0701,3.0704,3.0673,3.0701,3.0701,3.0701,3.0701,3.0701,0,3.0759,3.0755,3.0755,3.0752,3.0753,3.0743,3.074,3.0741,3.0743,3.0739,3.0739,3.074,3.0741,3.0733,3.0732,3.0735,3.0731,3.0736,3.0736,3.0735,3.0709,3.0707,3.0739,3.0739,3.0739,3.0739,3.0739,3.0739,3.0776,3.0782,3.0776,3.0781,3.0777,3.0779,3.0778,3.0776,3.0773,3.0775,3.0775,3.077,3.0765,3.0764,3.0764,3.0762,3.0762,3.0769,3.0765,3.0741,3.0737,3.0734,3.0732,3.0769,3.0769,3.0792,3.0792,3.0792]}]]